TimeEST,TemperatureF,Dew PointF,Humidity,Sea Level PressureIn,VisibilityMPH,Wind Direction,Wind SpeedMPH,Gust SpeedMPH,PrecipitationIn,Events,Conditions,WindDirDegrees,DateUTC
12:19 AM,37.4,35.6,93,30.08,9.0,NNW,13.8,-,N/A,,Overcast,340,2013-01-26 05:19:00
12:54 AM,37.0,35.1,93,30.12,10.0,NNW,19.6,-,N/A,,Overcast,340,2013-01-26 05:54:00
1:09 AM,37.4,35.6,93,30.08,10.0,NNW,19.6,-,N/A,,Overcast,340,2013-01-26 06:09:00
1:54 AM,36.0,35.1,97,30.12,10.0,NNW,13.8,-,N/A,,Overcast,330,2013-01-26 06:54:00
2:54 AM,36.0,34.0,93,30.12,10.0,NNW,12.7,-,N/A,,Overcast,340,2013-01-26 07:54:00
3:54 AM,35.1,33.1,92,30.13,10.0,NNW,16.1,24.2,N/A,,Overcast,330,2013-01-26 08:54:00
4:54 AM,35.1,32.0,89,30.13,10.0,NNW,17.3,-,N/A,,Overcast,340,2013-01-26 09:54:00
5:54 AM,33.1,30.9,92,30.14,10.0,NNW,16.1,-,N/A,,Overcast,340,2013-01-26 10:54:00
6:54 AM,32.0,30.0,92,30.17,10.0,NNW,19.6,-,N/A,,Overcast,340,2013-01-26 11:54:00
7:54 AM,32.0,28.0,85,30.18,10.0,North,16.1,21.9,N/A,,Overcast,350,2013-01-26 12:54:00
8:54 AM,32.0,28.0,85,30.20,10.0,NNW,11.5,-,N/A,,Scattered Clouds,340,2013-01-26 13:54:00
9:54 AM,33.1,26.1,75,30.23,10.0,North,10.4,-,N/A,,Partly Cloudy,350,2013-01-26 14:54:00
10:54 AM,34.0,24.1,67,30.24,10.0,NNW,12.7,-,N/A,,Clear,330,2013-01-26 15:54:00
11:54 AM,36.0,23.0,59,30.24,10.0,NNW,13.8,-,N/A,,Clear,340,2013-01-26 16:54:00
12:54 PM,37.9,23.0,55,30.22,10.0,NNW,15.0,-,N/A,,Clear,330,2013-01-26 17:54:00
1:54 PM,43.0,23.0,45,30.19,10.0,North,10.4,-,N/A,,Clear,350,2013-01-26 18:54:00
2:54 PM,46.9,21.9,37,30.18,10.0,North,12.7,18.4,N/A,,Clear,350,2013-01-26 19:54:00
3:54 PM,46.9,21.0,36,30.19,10.0,NNW,11.5,17.3,N/A,,Clear,340,2013-01-26 20:54:00
4:54 PM,46.0,21.9,39,30.20,10.0,NNW,12.7,-,N/A,,Clear,340,2013-01-26 21:54:00
5:54 PM,42.1,24.1,49,30.23,10.0,NW,4.6,-,N/A,,Clear,320,2013-01-26 22:54:00
6:54 PM,39.0,26.1,60,30.26,10.0,NNW,13.8,-,N/A,,Clear,340,2013-01-26 23:54:00
7:54 PM,37.0,26.1,65,30.28,10.0,NNW,10.4,-,N/A,,Clear,340,2013-01-27 00:54:00
8:54 PM,35.1,26.1,70,30.29,10.0,NNW,6.9,-,N/A,,Clear,340,2013-01-27 01:54:00
9:54 PM,32.0,26.1,79,30.32,10.0,NW,5.8,-,N/A,,Clear,320,2013-01-27 02:54:00
10:54 PM,30.9,25.0,79,30.33,10.0,NNW,3.5,-,N/A,,Clear,340,2013-01-27 03:54:00
11:54 PM,30.0,25.0,82,30.35,10.0,Calm,Calm,-,N/A,,Clear,0,2013-01-27 04:54:00